weather.gov     
National Weather Service

Terminal Aerodrome Forecast
NWS Homepage
This page is being discontinued on March 12, 2014.
The same data is available at this site. Please update your bookmarks.
Thank you, and we apologize for the inconvenience.
Please send an email to SR-SRH.Webmaster@noaa.gov with any concerns.


Current Version
Previous Version:    01  02  03  04  05  06  07  08  09  10  11  12  13  14  15  16  17  18  19  20  21  22  23  24  25  26  
[Printable]
941
FTUS44 KSHV 300500
TAFGGG
TAF
KGGG 300525Z 3006/3106 11004KT P6SM FEW150 BKN250
     FM300800 13004KT P6SM BKN150 BKN250
     FM301300 14007KT P6SM BKN110
     FM301800 14008KT P6SM FEW040 BKN100
     FM310100 13007KT P6SM BKN150 BKN250=


U.S. Dept. of Commerce
NOAA National Weather Service
1325 East West Highway
Silver Spring, MD 20910
E-mail: w-nws.webmaster@noaa.gov
Page last modified: May 16, 2007
NATIONAL WEATHER SERVICE: for Safety, for Work, for Fun - FOR LIFE